Home > Weather > Cornwall > Past weeks

Flag for Canada Weather for the Past 2 Weeks in Cornwall, Ontario, Canada

Now
32 °F

Chilly.


Feels Like: 32 °F
Forecast: 36 / 60 °F
Wind: No wind

Location: St Anicet

Current Time: May 3, 2016 at 6:53:57 AM

Latest Report: May 3, 2016 at 6:00 AM


Visibility: N/A

Pressure: 29.97 "Hg

Humidity: 100%

Dew Point: 32 °F

Location of CornwallLocation

Historic Weather in Cornwall — Graph

°F

Cornwall Temperature Yesterday

Maximum temperature yesterday: 48 °F (at 4:00 PM)
Minimum temperature yesterday: 44 °F (at 6:00 AM)
Average temperature yesterday: 46 °F

High & Low Weather Summary for the Past Weeks

 TemperatureHumidityPressure
High74 °F (Apr 21, 4:00 PM)100% (Apr 18, 11:00 PM)30.38 "Hg (Apr 18, 11:00 PM)
Low26 °F (Apr 30, 6:00 AM)15% (Apr 20, 5:00 PM)29.79 "Hg (Apr 22, 8:00 AM)
Average44 °F55%30.08 "Hg
* Reported Apr 18 6:00 AM — May 3 6:00 AM, Cornwall, Weather by CustomWeather, © 2016

Note: Actual official high and low records may vary slightly from our data, if they occured in-between our weather recording intervals... More about our weather records

Advertising

Cornwall Weather History for the Previous 24 Hours

Scroll right to see more
 ConditionsComfort  
Time TempWeatherWind HumidityBarometerVisibility
6:00 AM
Tue, May 3
32 °FChilly.No wind100%29.97 "HgN/A
5:00 AM33 °FChilly.No wind100%29.97 "HgN/A
4:00 AM35 °FChilly.No wind100%29.97 "HgN/A
3:00 AM37 °FChilly.1 mph100%29.97 "HgN/A
2:00 AM40 °FChilly.No wind98%29.97 "HgN/A
1:00 AM41 °FQuite cool.1 mph97%29.98 "HgN/A
12:00 AM44 °FQuite cool.2 mph97%30.00 "HgN/A
11:00 PM
Mon, May 2
44 °FQuite cool.No wind95%30.00 "HgN/A
10:00 PM45 °FCool.2 mph94%30.00 "HgN/A
9:00 PM45 °FCool.2 mph93%30.00 "HgN/A
8:00 PM46 °FCool.3 mph91%29.99 "HgN/A
7:00 PM46 °FCool.3 mph92%29.99 "HgN/A
6:00 PM47 °FCool.6 mph92%29.98 "HgN/A
5:00 PM47 °FCool.8 mph92%29.97 "HgN/A
4:00 PM48 °FCool.8 mph93%29.95 "HgN/A
3:00 PM46 °FCool.9 mph97%29.97 "HgN/A
2:00 PM46 °FCool.7 mph96%29.96 "HgN/A
1:00 PM46 °FCool.12 mph94%29.96 "HgN/A
12:00 PM46 °FCool.12 mph93%29.96 "HgN/A
11:00 AM47 °FCool.10 mph92%29.97 "HgN/A
10:00 AM47 °FCool.9 mph93%29.98 "HgN/A
9:00 AM46 °FCool.9 mph100%29.98 "HgN/A
8:00 AM46 °FCool.5 mph100%30.00 "HgN/A
7:00 AM45 °FQuite cool.2 mph100%30.00 "HgN/A
6:00 AM44 °FQuite cool.5 mph100%29.98 "HgN/A
Weather by CustomWeather, © 2016

See weather overviewHow to use our weather pages